Location: Armstrong
(40.9123°N, 82.0110°W)
Time: 23:45:11
(UTC+00:00)

Cosmos 1953 Rocket - Pass Details

Date: 29 October 2020
Orbit: 605 x 634 km, 82.5° (Epoch: 29 November)

Event Time Altitude Azimuth Distance (km) Brightness Sun altitude
Rises 23:02:57 0° 352° (N) 2,906 7.0 -7.4°
Reaches altitude 10° 23:05:11 10° 353° (N) 2,000 6.1 -7.8°
Maximum altitude 23:09:37 85° 83° (E) 634 3.6 -8.6°
Drops below altitude 10° 23:14:04 10° 172° (S) 2,000 6.2 -9.5°
Sets 23:16:18 0° 173° (S) 2,906 7.0 -9.9°
